RH
20 19 20 45 93 91 90 80 69 78 88 100 97 72 89 100 100 100 100 100 100 100 94 90 78 78 72 77 84 77 95 100 99 100 100 100 96 100 92 86 98 100 89
20 17 19 21 58 84 77 73 76 53 70 76 100 61 92 98 100 100 100 100 100 100 99 100 100 100 100 100 97 100 100 100 100 100 100 100 99 98 93 96 79 76 73
17 16 20 19 20 32 41 47 59 78 69 68 83 80 94 98 92 92 100 100 100 100 100 96 88 96 100 96 88 100 100 97 93 80 78 78 82 81 74 74 67 67 83
18 18 20 20 18 18 16 19 29 45 69 57 77 83 100 100 100 100 100 100 100 100 100 100 100 100 100 100 96 99 100 94 90 84 78 84 73 64 80 62 60 65 55
17 20 20 23 19 19 17 16 17 20 37 64 68 86 99 100 100 100 100 100 100 100 100 100 100 100 100 100 81 89 99 94 79 76 75 60 52 52 47 57 62 61 62
17 18 19 23 22 21 20 18 16 16 17 29 69 90 88 95 100 100 100 100 100 100 100 100 100 100 100 100 100 100 100 99 93 70 80 69 63 47 42 43 48 54 59
17 19 18 22 24 20 21 20 17 18 17 18 22 82 86 79 98 100 100 100 100 100 100 100 100 100 100 100 100 100 100 100 93 95 72 61 63 62 54 58 54 58 56
21 20 19 22 23 21 22 22 18 17 18 18 18 21 57 65 91 100 100 100 100 97 100 100 100 100 100 100 100 100 100 100 92 95 89 72 85 96 79 79 73 78 74
23 25 26 26 28 24 22 24 23 19 18 19 20 20 21 24 67 89 100 88 100 100 94 100 100 100 100 94 100 100 100 100 100 100 96 86 95 97 100 100 100 100 100
24 26 27 28 28 26 24 24 25 23 21 19 20 22 23 23 23 44 94 77 88 100 100 100 100 100 100 100 100 98 94 99 88 88 83 92 100 100 100 100 100 100 100
28 31 29 31 28 26 26 24 26 24 23 21 22 22 26 27 25 23 33 41 69 92 100 100 100 100 100 100 100 100 100 99 100 90 100 100 100 100 100 100 100 100 100
28 33 30 31 32 30 25 23 27 24 22 21 22 22 25 27 27 26 27 27 26 74 100 100 100 100 100 100 100 100 100 100 100 88 81 88 85 97 100 100 100 100 100
34 35 33 36 32 30 28 27 26 24 23 21 21 20 18 21 28 29 28 38 47 42 89 100 100 100 100 100 100 100 100 100 100 100 100 100 100 97 100 100 100 97 100
28 34 41 39 32 29 28 29 28 25 24 23 22 21 21 24 27 31 30 30 33 38 48 64 86 99 100 100 100 100 100 100 100 100 100 100 100 100 100 100 100 100 100
23 29 36 42 39 34 30 28 29 29 27 25 24 24 25 27 28 26 29 30 29 29 29 34 43 68 64 82 93 100 100 100 100 100 100 100 100 100 100 100 100 94 81
26 30 34 38 42 39 34 31 29 30 28 28 27 28 32 32 29 27 26 26 26 27 28 28 31 30 30 31 37 41 41 55 57 67 80 71 55 42 37 34 33 30 28
32 34 36 36 36 32 31 32 30 30 34 34 30 28 27 27 27 30 29 27 27 24 25 26 26 25 26 28 28 27 27 27 27 30 31 30 29 28 26 26 28 30 28
31 28 28 28 26 26 25 25 28 31 33 35 37 34 31 28 28 26 24 23 22 23 25 27 27 27 28 28 28 27 27 26 25 24 24 25 25 24 24 24 23 22 22
33 32 29 27 26 25 24 24 25 26 28 31 34 35 36 36 33 29 27 26 26 25 24 24 23 22 22 22 21 21 22 22 22 22 21 21 21 21 19 20 20 20 22
34 35 36 32 33 32 29 26 24 23 22 23 23 24 25 24 24 24 24 23 22 21 20 18 18 16 16 15 14 14 13 14 14 16 16 17 17 18 19 21 22 24 22
35 34 34 37 35 34 32 27 23 21 19 18 19 22 22 22 23 24 23 22 21 19 17 16 15 14 13 12 11 12 12 13 15 16 17 18 19 20 22 23 23 23 23
36 38 38 40 38 34 32 28 23 20 19 22 26 23 21 20 19 19 19 18 16 15 14 14 14 14 13 13 12 13 14 14 15 16 17 19 22 23 23 24 24 24 24
38 40 42 44 43 36 32 28 27 28 30 30 29 25 21 18 18 18 18 19 19 17 15 14 14 13 12 12 12 12 13 13 14 16 17 20 23 24 25 26 28 30 32
44 46 47 50 49 48 43 36 34 39 41 37 33 29 30 29 28 27 24 22 23 22 20 18 18 17 16 14 16 16 16 16 16 18 19 20 23 26 28 32 36 37 46
52 53 57 53 47 41 50 54 59 48 41 39 38 36 35 34 33 30 28 26 26 24 25 25 23 22 22 22 23 24 24 26 28 29 30 33 34 38 41 45 45 57 70
56 52 47 51 59 71 67 56 51 46 49 50 46 43 46 45 38 33 32 32 37 38 36 35 32 30 29 31 35 39 43 41 41 47 45 43 44 53 62 58 68 81 86
Wind_Speed
102 99 100 99 100 100 97 93 91 88 79 70 70 66 63 57 56 54 53 51 52 54 55 58 60 60 60 60 59 63 62 62 64 63 64 65 65 63 64 63 63 63 65
103 100 99 98 99 99 98 96 93 92 87 80 77 69 64 59 60 58 58 52 53 55 54 55 59 63 67 69 48 55 55 58 60 64 66 69 69 63 65 65 68 71 70
102 99 96 97 97 99 98 95 95 94 92 89 83 76 66 62 67 61 62 60 54 48 52 57 61 61 61 61 61 62 62 64 69 71 74 73 72 71 72 72 73 75 73
95 98 95 96 95 97 98 95 95 95 95 91 81 75 65 65 70 69 66 61 57 50 46 52 55 58 63 65 68 72 67 71 72 75 74 74 74 74 77 78 78 77 74
95 95 96 95 94 94 94 93 93 93 93 92 87 84 84 73 68 69 72 69 69 65 63 57 57 61 62 66 66 70 72 73 74 74 74 74 74 74 75 74 73 75 76
93 94 95 93 97 94 93 92 91 91 89 88 91 82 85 83 77 75 76 74 74 73 72 70 69 68 67 68 69 68 70 73 74 70 71 74 77 78 76 75 76 76 78
91 91 95 90 94 97 94 93 91 89 90 88 89 94 88 83 86 79 80 81 80 78 79 79 81 81 79 78 78 78 78 78 80 81 79 81 80 80 81 82 81 82 82
92 90 91 87 91 92 90 93 94 91 88 87 91 91 94 96 92 97 93 82 85 84 84 83 83 85 89 87 88 88 88 87 85 88 89 89 86 88 89 91 90 91 88
89 86 85 83 83 87 91 92 93 93 92 89 88 89 92 95 94 102 102 100 95 92 88 87 87 89 88 87 90 93 95 92 90 92 92 93 92 91 89 90 89 89 88
86 86 85 83 84 86 87 88 90 91 91 93 93 90 91 92 97 102 104 104 102 96 90 92 95 94 89 90 90 94 96 95 95 93 91 91 91 91 92 92 93 94 94
82 84 85 84 85 84 84 85 84 89 91 92 93 94 95 96 99 102 105 108 104 104 97 93 95 96 98 100 101 100 97 96 99 93 94 94 96 97 99 100 105 106 106
78 82 86 85 83 84 85 83 83 86 86 89 90 92 95 97 100 101 101 107 107 108 105 101 100 101 101 102 99 102 102 100 99 103 104 106 108 111 108 110 110 112 111
79 82 83 83 85 85 81 81 84 86 84 87 86 89 96 97 97 99 101 105 108 106 108 105 107 109 107 103 102 101 103 106 106 108 110 113 113 115 116 118 121 121 122
77 79 80 83 85 83 81 80 83 85 84 85 86 89 90 91 95 99 102 103 106 108 110 111 114 116 116 112 112 113 114 114 115 117 117 119 121 120 120 122 121 122 124
74 76 77 79 80 80 82 83 82 83 83 84 86 88 90 91 96 98 97 101 104 107 111 114 114 120 120 121 120 119 122 122 121 123 124 124 125 127 128 127 128 128 125
71 73 75 75 77 80 80 80 83 84 85 85 86 86 88 91 96 98 100 102 103 103 106 111 114 120 119 119 119 120 120 123 123 122 121 121 121 122 123 125 124 124 121
67 69 70 73 75 77 74 76 79 81 83 84 86 89 90 93 95 98 99 100 101 102 102 105 110 114 115 116 119 120 119 119 118 117 117 117 119 119 119 120 119 119 118
65 67 69 70 71 72 72 74 75 78 81 83 86 88 91 92 93 94 96 96 96 98 101 104 106 108 110 111 113 114 114 114 114 113 113 114 115 116 118 118 114 110 102
63 64 65 67 68 69 70 71 71 73 76 79 84 86 88 89 91 95 95 96 97 98 100 102 103 104 105 107 109 110 110 111 110 109 108 107 105 103 101 97 93 90 87
61 63 65 66 67 68 70 71 72 73 74 76 77 79 80 83 86 88 88 90 91 93 95 96 97 97 97 98 97 97 96 95 93 93 93 93 91 88 87 83 81 79 78
63 64 65 65 67 68 70 72 72 73 74 75 75 74 76 78 79 81 82 84 85 86 88 88 89 89 90 89 89 88 87 86 85 84 84 83 81 79 77 74 71 69 66
62 64 65 67 68 69 70 72 72 73 71 70 71 74 74 75 76 78 79 80 82 83 83 84 84 84 83 83 82 80 80 79 78 77 74 73 71 70 69 65 64 61 58
63 64 64 65 67 67 68 70 70 69 68 68 69 70 71 73 72 74 74 75 76 77 79 79 79 78 78 77 76 75 73 70 70 68 66 65 63 61 59 57 55 53 52
61 62 63 64 65 66 68 68 65 64 64 64 65 66 68 69 70 71 71 71 70 71 72 68 67 66 66 65 64 63 62 62 59 58 57 57 56 54 52 51 50 49 48
57 59 61 63 64 64 63 63 63 65 63 63 62 62 63 64 64 64 62 62 59 59 57 56 56 55 54 53 53 53 53 51 50 49 49 49 47 48 48 48 48 44 42
54 55 56 57 57 57 57 57 58 57 54 54 56 56 56 58 57 56 53 52 51 52 50 49 47 46 46 45 46 46 46 45 45 44 44 46 47 47 46 46 42 40 39
Wind_Direction
219 219 219 220 221 222 223 225 226 227 227 233 237 234 232 237 241 245 247 248 253 257 258 256 257 260 261 261 262 270 267 269 272 276 277 278 280 279 279 286 286 287 290
219 218 220 221 222 224 226 225 226 228 227 227 233 233 233 238 238 238 243 247 252 250 250 256 259 259 259 259 262 268 270 269 270 270 271 272 272 278 280 281 283 287 289
220 220 222 222 223 224 226 226 228 227 230 229 231 233 235 238 245 240 245 246 248 252 256 255 256 260 260 256 256 260 264 266 266 269 272 274 274 275 279 282 283 285 289
222 223 221 225 224 226 227 227 228 229 230 231 231 232 228 233 242 246 247 248 246 245 247 255 257 260 262 262 261 260 260 263 263 266 272 274 277 280 281 284 286 287 293
221 222 222 225 226 227 228 228 228 230 230 232 233 231 232 233 238 242 246 248 248 247 245 246 253 257 260 266 266 263 262 265 269 269 274 275 277 278 278 282 288 290 291
222 223 223 223 227 227 230 229 229 230 231 229 230 232 233 233 235 240 244 245 248 248 250 251 251 256 259 262 264 268 270 271 272 270 273 276 277 278 280 284 286 290 295
224 224 225 222 228 228 230 231 230 230 231 231 232 230 232 230 233 237 240 247 247 248 252 254 255 256 256 258 263 265 267 267 269 272 274 276 277 281 283 286 288 291 289
225 225 228 225 228 230 231 234 234 232 232 232 233 235 235 237 235 238 238 237 245 246 249 250 254 256 258 260 260 261 263 264 268 271 275 279 282 283 286 287 288 288 288
226 227 228 225 228 231 231 233 236 235 233 233 234 234 236 237 237 240 241 239 242 247 248 252 256 258 260 259 261 261 262 264 267 269 273 278 281 284 287 287 290 291 292
226 227 228 229 227 228 231 233 235 236 237 235 235 234 236 239 239 241 242 243 243 245 247 251 254 256 258 262 265 265 264 265 267 269 272 275 279 282 284 286 286 288 288
227 229 229 230 231 231 231 233 234 236 236 237 236 237 238 239 242 243 243 245 244 243 246 248 252 255 255 259 263 266 269 269 269 270 272 274 279 280 282 284 286 288 289
230 230 231 230 232 231 232 234 236 237 237 238 237 238 238 240 242 244 245 248 247 245 244 246 247 252 255 258 260 263 266 268 270 271 271 274 277 278 279 280 283 285 288
227 231 232 232 233 234 231 233 236 239 238 239 239 239 241 240 241 244 245 246 248 248 246 245 248 252 253 255 257 260 263 266 268 270 273 275 277 279 280 282 284 285 286
227 230 233 234 235 236 235 234 236 239 240 240 241 242 243 242 242 243 245 246 247 249 250 248 249 252 255 258 260 261 262 264 266 269 272 276 279 281 282 282 283 283 284
229 231 233 236 239 239 238 238 237 239 240 241 243 244 245 245 245 246 247 249 250 250 252 252 253 254 255 257 258 258 261 263 265 268 270 272 274 276 276 277 279 282 284
230 232 233 235 238 239 240 241 242 242 243 242 243 244 245 248 249 249 249 250 252 253 253 254 254 256 257 259 260 262 263 265 267 269 271 273 274 276 277 279 281 282 283
231 233 235 237 239 241 242 242 243 243 243 245 246 245 245 246 248 250 252 254 255 257 257 257 257 258 258 259 261 263 265 266 269 270 271 272 273 274 276 277 280 281 281
233 235 237 239 241 243 244 245 245 245 245 245 247 248 249 250 252 253 255 256 257 257 258 259 261 262 264 265 265 266 267 269 270 272 272 272 272 273 275 277 278 279 282
233 237 240 243 245 247 248 249 249 249 248 248 249 250 252 254 255 256 258 260 262 263 263 262 263 263 264 264 265 266 267 267 268 270 270 271 272 273 275 277 279 281 282
236 239 241 244 246 248 250 252 252 252 252 253 253 253 255 255 257 258 260 262 263 264 265 266 266 266 266 266 267 268 268 269 269 270 269 270 272 273 276 278 278 277 278
237 240 243 246 248 250 252 254 255 255 256 257 258 260 259 259 260 261 262 263 264 265 266 267 269 270 269 270 270 270 270 269 270 270 270 271 272 273 274 275 276 277 277
241 243 244 246 248 251 253 256 258 259 261 264 264 264 264 264 265 265 266 266 267 267 268 269 269 269 269 269 269 268 268 269 269 270 270 270 270 271 272 274 274 274 274
243 245 247 250 252 254 256 258 260 263 264 265 265 265 265 266 266 266 266 267 268 268 269 269 270 270 270 270 270 269 269 268 267 268 268 267 267 269 269 269 270 271 271
245 247 250 252 254 257 259 261 264 264 264 263 263 264 264 264 265 266 266 267 269 269 271 271 271 272 271 270 268 267 266 266 266 265 264 264 264 264 264 265 266 267 265
248 249 250 252 255 258 261 264 262 262 263 263 262 262 262 263 264 265 267 268 269 270 270 270 271 271 270 269 267 264 261 260 261 261 261 260 260 260 260 262 263 265 266
249 251 254 257 259 258 257 258 257 259 258 259 260 262 262 264 265 268 269 270 271 271 272 272 270 269 268 265 263 261 258 258 256 255 256 256 255 255 257 260 263 263 261